カタログに戻る

ELEKTRON 3 DEB

運用中HEO
NORAD 29008·DEBRIS·🇷🇺 Russia

打ち上げ Jul 10, 1964 から Baikonur Cosmodrome

Loading…

次のパス (今後24時間)

TLE

経年Source: Space-Track

元期: Sep 3, 2026, 22:32 UTC

1 29008U 64038G   26246.93930326  .00000755  00000-0  18883-3 0  9993
2 29008  60.8350  27.5610 2866111  55.9981 328.1046  9.37977620739346

AllMySatでELEKTRON 3 DEBをリアルタイム追跡

Download on the App Store